GFSGL_500_temp_057.txt.gz
Temp
-13 -13 -13 -14 -14 -14 -14 -14 -14 -15 -15 -15 -15 -15 -15 -15 -15 -15 -16 -16 -16 -16 -16 -17 -17 -18 -18 -18 -19 -19 -20 -20 -20 -21 -22 -23 -23 -24 -24 -26 -26 -27 -28
-13 -13 -14 -14 -14 -14 -15 -15 -15 -15 -15 -15 -15 -15 -15 -16 -16 -17 -17 -17 -17 -17 -18 -18 -18 -18 -19 -20 -20 -20 -21 -21 -22 -22 -23 -24 -25 -25 -26 -27 -28 -28 -29
-14 -14 -14 -14 -14 -15 -15 -15 -15 -15 -15 -15 -15 -16 -16 -16 -17 -18 -18 -18 -18 -18 -19 -19 -19 -19 -20 -20 -21 -22 -22 -22 -23 -24 -24 -25 -26 -27 -28 -29 -29 -30 -31
-14 -14 -14 -15 -15 -15 -15 -15 -15 -15 -15 -16 -16 -16 -17 -17 -18 -19 -19 -19 -19 -19 -19 -20 -20 -20 -21 -22 -23 -23 -23 -24 -25 -25 -26 -27 -29 -29 -29 -30 -30 -31 -33
-14 -14 -15 -15 -15 -15 -15 -15 -15 -15 -15 -16 -17 -17 -18 -18 -19 -19 -20 -20 -20 -20 -20 -21 -21 -22 -23 -24 -23 -24 -25 -25 -26 -27 -28 -29 -30 -30 -31 -31 -32 -33 -33
-15 -15 -15 -15 -15 -15 -15 -15 -15 -15 -16 -17 -18 -18 -19 -19 -19 -20 -20 -20 -20 -21 -21 -22 -22 -23 -24 -24 -24 -25 -26 -27 -28 -29 -30 -30 -31 -32 -32 -33 -34 -34 -34
-14 -15 -15 -15 -15 -15 -15 -16 -16 -16 -17 -18 -18 -19 -19 -20 -20 -20 -20 -21 -21 -21 -22 -23 -23 -24 -24 -25 -26 -27 -28 -29 -30 -30 -31 -31 -32 -33 -33 -34 -35 -36 -36
-15 -15 -15 -15 -16 -16 -16 -16 -16 -17 -18 -19 -19 -19 -20 -20 -20 -21 -21 -22 -22 -22 -23 -24 -24 -25 -26 -26 -27 -28 -29 -30 -31 -31 -32 -32 -33 -34 -35 -35 -36 -36 -36
-16 -16 -16 -16 -16 -16 -16 -18 -18 -18 -19 -19 -20 -20 -20 -21 -21 -22 -22 -22 -23 -23 -24 -24 -25 -27 -27 -27 -28 -29 -30 -31 -32 -32 -33 -33 -34 -35 -36 -36 -37 -37 -37
-16 -16 -16 -16 -17 -17 -18 -18 -18 -18 -19 -20 -20 -21 -21 -21 -22 -22 -23 -23 -24 -24 -24 -26 -27 -27 -28 -29 -30 -30 -31 -32 -32 -33 -34 -34 -35 -36 -36 -37 -37 -37 -37
-16 -17 -17 -17 -17 -17 -18 -18 -18 -19 -20 -20 -21 -21 -22 -22 -23 -23 -23 -24 -24 -25 -26 -27 -28 -29 -30 -30 -31 -32 -32 -33 -33 -34 -34 -35 -36 -36 -37 -37 -38 -38 -38
-17 -17 -18 -18 -18 -18 -19 -19 -20 -20 -21 -21 -21 -22 -22 -23 -23 -23 -24 -25 -26 -27 -27 -28 -29 -30 -31 -31 -32 -33 -33 -33 -34 -34 -35 -36 -36 -36 -37 -37 -38 -38 -38
-18 -19 -19 -19 -19 -19 -20 -20 -20 -21 -21 -22 -22 -22 -23 -23 -24 -25 -26 -27 -28 -28 -29 -29 -30 -31 -32 -32 -33 -33 -34 -34 -35 -35 -36 -36 -36 -37 -37 -38 -38 -38 -38
-19 -19 -19 -20 -20 -20 -20 -20 -20 -21 -21 -22 -23 -23 -24 -25 -26 -27 -27 -28 -29 -30 -30 -30 -31 -32 -32 -33 -33 -34 -34 -35 -35 -36 -36 -37 -37 -37 -37 -38 -38 -39 -39
-20 -20 -20 -20 -21 -21 -21 -21 -22 -22 -23 -23 -24 -25 -26 -27 -27 -28 -29 -29 -30 -31 -31 -32 -32 -33 -33 -34 -34 -34 -35 -35 -36 -37 -37 -37 -37 -37 -38 -38 -39 -39 -39
-21 -21 -21 -22 -22 -22 -22 -23 -23 -24 -25 -25 -26 -27 -27 -28 -28 -29 -30 -30 -31 -32 -33 -33 -33 -34 -34 -34 -35 -35 -36 -36 -37 -37 -37 -37 -38 -38 -38 -39 -39 -39 -39
-22 -22 -22 -23 -23 -23 -24 -24 -25 -26 -27 -27 -27 -28 -28 -29 -29 -30 -31 -31 -32 -33 -33 -34 -34 -34 -35 -35 -35 -36 -36 -36 -37 -37 -37 -38 -38 -38 -38 -39 -39 -39 -39
-23 -23 -24 -24 -24 -25 -25 -26 -26 -27 -27 -28 -28 -29 -29 -30 -31 -31 -32 -33 -33 -34 -34 -34 -35 -35 -35 -36 -36 -36 -36 -37 -37 -37 -37 -38 -38 -38 -38 -39 -39 -39 -39
-24 -25 -25 -26 -26 -26 -27 -27 -28 -28 -28 -29 -29 -30 -30 -31 -32 -33 -33 -34 -34 -34 -35 -35 -35 -35 -36 -36 -36 -36 -37 -37 -38 -38 -38 -38 -38 -39 -39 -39 -39 -39 -39
-26 -26 -26 -27 -27 -27 -28 -28 -29 -29 -30 -31 -31 -31 -32 -33 -33 -34 -34 -35 -35 -35 -35 -36 -36 -36 -36 -36 -37 -37 -38 -38 -38 -38 -39 -39 -38 -39 -39 -39 -40 -40 -40
-27 -27 -28 -28 -28 -29 -30 -30 -31 -31 -31 -32 -32 -33 -34 -34 -35 -35 -35 -35 -36 -36 -36 -36 -36 -36 -37 -37 -37 -38 -38 -38 -39 -39 -39 -39 -38 -39 -39 -40 -40 -40 -40
-29 -29 -30 -30 -31 -31 -31 -32 -32 -32 -32 -33 -34 -35 -35 -35 -36 -36 -36 -36 -36 -36 -37 -37 -37 -37 -37 -38 -38 -38 -39 -39 -39 -39 -39 -39 -39 -40 -40 -40 -40 -40 -40
-31 -31 -31 -32 -32 -32 -32 -33 -33 -33 -34 -35 -36 -36 -36 -36 -36 -36 -37 -36 -37 -37 -37 -37 -37 -38 -38 -39 -39 -39 -39 -39 -39 -39 -40 -40 -40 -41 -41 -40 -40 -40 -39
-32 -32 -32 -32 -32 -33 -33 -34 -35 -36 -36 -36 -36 -37 -37 -37 -37 -37 -37 -37 -37 -37 -38 -38 -38 -39 -39 -40 -39 -40 -40 -39 -40 -40 -40 -41 -41 -41 -40 -40 -40 -40 -39
-32 -32 -33 -33 -34 -34 -35 -35 -36 -36 -37 -37 -37 -37 -37 -37 -37 -37 -37 -38 -38 -38 -39 -39 -40 -40 -40 -40 -40 -40 -40 -39 -40 -40 -41 -41 -40 -40 -40 -40 -40 -39 -39
-33 -33 -34 -35 -35 -35 -36 -36 -37 -37 -37 -37 -37 -37 -37 -38 -38 -38 -38 -38 -39 -40 -41 -41 -41 -40 -40 -40 -40 -40 -40 -40 -40 -40 -40 -40 -40 -40 -40 -40 -39 -39 -39

GFSGL_500_temp_060.txt.gz
Temp
-11 -11 -11 -12 -12 -13 -13 -13 -14 -14 -14 -14 -15 -15 -15 -15 -16 -16 -15 -15 -16 -16 -16 -17 -17 -17 -17 -17 -18 -18 -19 -19 -20 -21 -21 -21 -22 -22 -22 -23 -24 -25 -26
-11 -11 -11 -13 -13 -13 -13 -14 -14 -14 -15 -15 -15 -15 -16 -16 -16 -16 -16 -16 -17 -17 -17 -17 -17 -17 -18 -18 -19 -19 -20 -20 -20 -21 -22 -23 -23 -23 -23 -24 -26 -26 -27
-12 -12 -12 -13 -13 -14 -14 -14 -15 -15 -15 -15 -16 -16 -16 -16 -16 -16 -16 -17 -18 -18 -18 -18 -18 -19 -19 -19 -19 -20 -21 -21 -21 -22 -23 -23 -23 -24 -25 -25 -26 -28 -29
-12 -12 -13 -14 -14 -14 -14 -15 -15 -15 -15 -16 -16 -16 -16 -15 -16 -16 -17 -17 -18 -19 -19 -19 -19 -19 -20 -20 -20 -21 -21 -22 -23 -23 -24 -24 -24 -25 -26 -26 -27 -29 -30
-12 -13 -13 -14 -15 -15 -15 -15 -15 -15 -16 -16 -16 -15 -16 -16 -16 -16 -17 -18 -19 -19 -19 -20 -20 -20 -21 -21 -21 -22 -22 -23 -24 -24 -25 -25 -26 -27 -27 -28 -29 -30 -30
-14 -14 -14 -14 -15 -15 -15 -15 -15 -15 -15 -16 -16 -16 -16 -16 -16 -18 -18 -19 -19 -20 -20 -21 -21 -21 -21 -22 -22 -23 -23 -24 -24 -25 -26 -26 -27 -28 -29 -30 -31 -31 -31
-14 -15 -15 -15 -15 -15 -15 -15 -16 -15 -15 -15 -16 -16 -16 -16 -18 -19 -19 -20 -20 -20 -21 -21 -21 -22 -22 -22 -23 -24 -24 -24 -26 -26 -27 -28 -28 -29 -30 -31 -32 -32 -33
-14 -15 -15 -15 -15 -16 -15 -15 -16 -16 -16 -16 -16 -16 -17 -19 -19 -20 -20 -20 -20 -21 -21 -22 -22 -22 -23 -23 -24 -25 -25 -26 -27 -27 -28 -29 -30 -31 -31 -32 -33 -33 -34
-15 -15 -16 -16 -16 -16 -16 -16 -16 -16 -16 -16 -17 -17 -19 -20 -20 -20 -21 -21 -21 -21 -22 -22 -22 -23 -24 -25 -24 -25 -26 -28 -28 -29 -29 -30 -31 -32 -33 -33 -33 -34 -35
-15 -15 -16 -16 -16 -16 -16 -17 -17 -16 -17 -17 -18 -19 -19 -20 -21 -21 -21 -21 -22 -22 -23 -23 -24 -25 -25 -25 -26 -27 -28 -29 -29 -30 -31 -32 -33 -33 -34 -34 -35 -35 -36
-15 -16 -16 -17 -17 -17 -17 -17 -17 -17 -18 -18 -19 -20 -20 -21 -21 -21 -21 -22 -23 -23 -23 -25 -25 -25 -25 -27 -28 -28 -29 -30 -30 -31 -32 -33 -33 -34 -34 -34 -35 -36 -36
-16 -17 -17 -17 -17 -18 -18 -18 -18 -18 -18 -19 -19 -20 -21 -21 -21 -22 -22 -23 -23 -24 -25 -25 -25 -27 -28 -29 -29 -30 -30 -31 -31 -32 -32 -33 -34 -34 -34 -35 -36 -36 -37
-17 -17 -18 -18 -18 -18 -18 -18 -19 -19 -19 -20 -20 -21 -21 -22 -22 -23 -24 -24 -24 -24 -25 -26 -27 -28 -29 -29 -30 -31 -32 -32 -33 -33 -34 -34 -34 -35 -35 -36 -36 -36 -37
-18 -18 -18 -19 -19 -19 -19 -19 -20 -20 -20 -20 -21 -22 -22 -23 -23 -23 -24 -24 -25 -26 -27 -27 -28 -29 -30 -30 -31 -32 -33 -33 -34 -34 -34 -35 -35 -36 -36 -36 -37 -37 -37
-19 -19 -19 -20 -20 -20 -20 -21 -21 -21 -21 -21 -22 -22 -23 -23 -24 -25 -26 -27 -27 -28 -28 -29 -30 -30 -31 -32 -32 -33 -33 -34 -34 -35 -35 -35 -36 -36 -37 -37 -37 -37 -37
-20 -20 -20 -20 -21 -21 -21 -21 -22 -22 -22 -22 -23 -23 -24 -25 -26 -27 -27 -28 -28 -29 -30 -30 -31 -32 -33 -33 -34 -34 -34 -35 -35 -35 -36 -36 -36 -36 -37 -37 -37 -37 -38
-21 -22 -22 -22 -22 -22 -22 -22 -23 -23 -23 -24 -25 -25 -26 -27 -27 -28 -28 -29 -30 -30 -31 -31 -32 -33 -34 -34 -35 -35 -35 -35 -36 -36 -36 -36 -36 -36 -37 -37 -37 -38 -39
-23 -23 -23 -23 -23 -23 -24 -24 -24 -25 -25 -26 -26 -27 -27 -28 -28 -29 -30 -30 -31 -31 -32 -33 -33 -34 -35 -35 -35 -36 -36 -36 -36 -36 -36 -37 -37 -37 -37 -38 -38 -38 -38
-24 -24 -24 -24 -24 -25 -25 -25 -26 -26 -27 -27 -28 -28 -28 -29 -30 -30 -31 -31 -32 -32 -33 -34 -35 -36 -36 -36 -36 -36 -36 -36 -37 -37 -37 -37 -37 -37 -38 -38 -38 -39 -39
-24 -25 -25 -25 -26 -26 -27 -27 -27 -28 -28 -28 -29 -29 -30 -31 -31 -31 -32 -33 -33 -34 -35 -36 -36 -36 -36 -36 -37 -37 -37 -37 -37 -37 -37 -38 -38 -38 -38 -39 -39 -39 -39
-25 -26 -26 -27 -27 -27 -28 -28 -29 -29 -30 -30 -31 -31 -32 -32 -32 -33 -33 -34 -35 -36 -36 -36 -37 -37 -37 -37 -37 -37 -37 -37 -37 -38 -38 -39 -39 -39 -39 -39 -39 -40 -40
-27 -28 -28 -28 -29 -29 -29 -29 -30 -31 -31 -32 -32 -32 -32 -33 -34 -34 -35 -36 -36 -37 -37 -37 -37 -37 -37 -37 -38 -38 -38 -38 -38 -39 -39 -39 -39 -39 -39 -40 -40 -40 -41
-29 -29 -29 -29 -30 -30 -31 -32 -32 -32 -32 -33 -33 -33 -34 -34 -35 -35 -36 -37 -37 -37 -37 -37 -37 -38 -38 -38 -38 -38 -39 -39 -39 -39 -40 -40 -39 -40 -40 -40 -41 -41 -41
-30 -31 -31 -31 -32 -32 -32 -33 -33 -33 -33 -33 -34 -34 -35 -35 -36 -37 -38 -38 -38 -38 -38 -38 -38 -38 -39 -39 -39 -39 -40 -40 -40 -40 -40 -40 -40 -40 -41 -41 -41 -41 -40
-32 -32 -32 -33 -33 -33 -33 -33 -33 -34 -34 -34 -35 -35 -36 -37 -37 -38 -38 -38 -38 -38 -38 -38 -39 -39 -39 -40 -40 -40 -40 -40 -40 -40 -40 -40 -40 -40 -41 -41 -41 -40 -40
-33 -33 -33 -33 -33 -33 -34 -34 -34 -34 -35 -35 -35 -36 -38 -38 -38 -38 -38 -38 -38 -39 -39 -39 -39 -40 -41 -41 -41 -41 -40 -41 -40 -40 -40 -40 -40 -40 -40 -40 -40 -40 -40

GFSGL_500_temp_063.txt.gz
Temp
-11 -10 -10 -11 -11 -11 -12 -12 -12 -12 -13 -13 -14 -14 -15 -15 -16 -16 -16 -16 -16 -16 -16 -16 -16 -17 -18 -18 -18 -18 -19 -19 -19 -19 -19 -20 -20 -21 -21 -21 -22 -22 -23
-11 -11 -11 -11 -11 -11 -12 -13 -13 -13 -14 -14 -14 -15 -15 -16 -16 -16 -16 -16 -16 -16 -16 -16 -17 -18 -18 -18 -19 -19 -19 -19 -19 -20 -20 -21 -21 -21 -21 -22 -23 -23 -23
-11 -11 -11 -11 -12 -12 -12 -13 -14 -14 -14 -15 -15 -15 -15 -16 -16 -16 -16 -16 -16 -16 -16 -17 -18 -19 -19 -19 -20 -20 -20 -20 -20 -20 -21 -21 -22 -22 -22 -23 -24 -24 -24
-12 -11 -12 -12 -12 -12 -13 -13 -14 -14 -15 -15 -15 -16 -16 -16 -16 -16 -16 -16 -16 -16 -17 -18 -19 -19 -20 -20 -20 -20 -20 -21 -21 -21 -22 -22 -22 -23 -23 -24 -24 -25 -26
-12 -12 -13 -13 -13 -13 -14 -14 -14 -15 -15 -16 -16 -16 -16 -16 -16 -16 -16 -16 -16 -17 -18 -19 -20 -20 -20 -20 -21 -21 -21 -21 -21 -22 -22 -22 -23 -24 -24 -24 -25 -26 -27
-12 -13 -13 -14 -14 -14 -15 -15 -15 -15 -16 -16 -16 -16 -16 -16 -16 -16 -16 -16 -17 -18 -19 -20 -20 -21 -21 -21 -21 -21 -22 -22 -23 -23 -23 -23 -24 -25 -25 -26 -26 -27 -27
-13 -13 -14 -14 -14 -14 -15 -15 -15 -16 -16 -16 -16 -16 -16 -16 -16 -16 -16 -16 -18 -19 -20 -20 -21 -21 -21 -21 -21 -22 -22 -23 -24 -24 -24 -25 -25 -26 -27 -27 -28 -29 -29
-13 -14 -14 -15 -15 -15 -15 -15 -15 -15 -16 -16 -16 -16 -16 -16 -16 -17 -17 -17 -19 -20 -21 -21 -21 -21 -22 -22 -22 -23 -24 -24 -25 -25 -25 -26 -27 -27 -28 -29 -29 -30 -31
-14 -14 -15 -15 -15 -15 -15 -15 -15 -16 -16 -16 -17 -16 -16 -16 -16 -17 -18 -20 -20 -21 -21 -21 -22 -22 -22 -22 -23 -24 -25 -26 -26 -26 -27 -28 -28 -29 -30 -30 -31 -32 -32
-15 -15 -15 -15 -15 -16 -16 -16 -16 -16 -17 -17 -17 -17 -17 -17 -18 -19 -20 -21 -21 -21 -21 -22 -22 -23 -23 -24 -25 -25 -26 -26 -26 -27 -28 -29 -30 -30 -31 -32 -33 -34 -34
-16 -16 -16 -16 -16 -16 -16 -16 -17 -17 -17 -17 -17 -17 -18 -19 -19 -20 -21 -21 -21 -21 -22 -23 -23 -24 -25 -25 -26 -26 -25 -27 -28 -28 -29 -30 -30 -31 -32 -33 -34 -34 -35
-17 -17 -16 -16 -16 -16 -17 -17 -17 -18 -18 -18 -18 -18 -19 -19 -20 -20 -21 -21 -22 -22 -23 -24 -24 -26 -26 -25 -25 -27 -28 -28 -29 -29 -30 -30 -32 -33 -34 -34 -35 -35 -35
-17 -17 -17 -17 -17 -18 -18 -18 -18 -18 -18 -19 -18 -19 -20 -20 -21 -21 -22 -23 -23 -23 -24 -25 -26 -25 -26 -27 -28 -29 -29 -30 -30 -30 -31 -32 -33 -34 -35 -35 -35 -36 -36
-18 -18 -18 -18 -18 -19 -19 -19 -19 -19 -19 -19 -19 -20 -21 -21 -22 -23 -23 -23 -24 -24 -24 -24 -26 -27 -28 -28 -29 -29 -30 -31 -31 -32 -33 -34 -35 -35 -36 -36 -36 -36 -36
-18 -19 -19 -19 -19 -19 -20 -20 -20 -20 -20 -21 -21 -21 -22 -22 -22 -22 -23 -23 -24 -25 -26 -27 -27 -27 -28 -29 -29 -30 -31 -32 -32 -34 -34 -35 -36 -36 -36 -36 -36 -37 -37
-20 -20 -20 -20 -20 -20 -20 -20 -20 -21 -21 -21 -22 -22 -22 -22 -23 -23 -24 -25 -26 -26 -27 -27 -28 -29 -29 -30 -31 -31 -32 -33 -34 -35 -36 -36 -36 -36 -37 -37 -37 -37 -37
-21 -21 -21 -21 -21 -21 -21 -22 -22 -23 -23 -23 -23 -23 -23 -24 -24 -25 -26 -26 -27 -27 -28 -29 -29 -30 -31 -31 -32 -33 -34 -35 -35 -36 -36 -36 -37 -37 -37 -37 -38 -37 -37
-22 -22 -22 -22 -22 -22 -23 -23 -23 -23 -23 -24 -24 -25 -25 -26 -26 -27 -27 -28 -28 -28 -29 -30 -31 -31 -32 -32 -33 -35 -36 -36 -36 -36 -37 -37 -37 -37 -37 -38 -38 -37 -38
-23 -23 -23 -23 -24 -24 -24 -24 -24 -24 -25 -25 -26 -26 -27 -28 -28 -28 -28 -29 -29 -30 -31 -31 -32 -32 -33 -33 -35 -36 -36 -37 -37 -37 -37 -37 -37 -37 -38 -38 -38 -38 -38
-24 -24 -24 -24 -24 -25 -25 -25 -25 -26 -26 -27 -27 -28 -28 -29 -29 -29 -30 -30 -31 -31 -32 -32 -33 -34 -34 -35 -36 -37 -37 -37 -38 -38 -38 -37 -38 -38 -38 -39 -39 -39 -39
-25 -26 -26 -26 -26 -26 -26 -26 -27 -27 -28 -28 -29 -29 -29 -30 -30 -31 -31 -32 -32 -32 -33 -33 -34 -35 -35 -36 -37 -37 -38 -38 -38 -38 -38 -38 -38 -38 -39 -39 -39 -39 -40
-26 -27 -27 -27 -27 -28 -28 -28 -29 -29 -29 -30 -30 -30 -31 -31 -32 -32 -32 -32 -33 -33 -34 -34 -35 -36 -37 -37 -38 -38 -38 -38 -38 -38 -38 -38 -39 -39 -40 -39 -39 -40 -40
-28 -28 -29 -29 -29 -29 -29 -30 -30 -30 -31 -31 -31 -32 -32 -33 -33 -33 -33 -33 -34 -34 -34 -35 -36 -37 -38 -38 -38 -38 -38 -39 -39 -39 -39 -39 -39 -40 -40 -40 -40 -40 -41
-29 -30 -30 -30 -30 -31 -31 -31 -31 -31 -32 -32 -33 -33 -33 -33 -33 -33 -33 -34 -34 -35 -36 -36 -37 -38 -38 -38 -39 -39 -39 -39 -39 -40 -40 -40 -40 -40 -40 -40 -40 -40 -40
-31 -31 -31 -31 -32 -32 -32 -32 -32 -33 -33 -33 -33 -33 -34 -34 -34 -34 -35 -35 -35 -36 -36 -37 -37 -38 -38 -38 -38 -39 -39 -40 -40 -41 -40 -40 -40 -40 -40 -40 -40 -40 -40
-32 -32 -32 -32 -32 -32 -33 -33 -33 -33 -33 -34 -34 -34 -34 -35 -35 -35 -35 -35 -36 -36 -37 -37 -38 -38 -38 -39 -39 -39 -40 -41 -41 -41 -41 -40 -40 -40 -40 -40 -40 -40 -40

GFSGL_500_temp_069.txt.gz
Temp
-11 -11 -11 -11 -11 -12 -12 -12 -12 -12 -12 -12 -12 -12 -12 -12 -12 -13 -13 -14 -14 -14 -14 -15 -15 -15 -16 -16 -16 -16 -17 -17 -17 -18 -18 -19 -19 -19 -19 -20 -20 -20 -21
-12 -12 -12 -12 -12 -13 -13 -12 -12 -12 -12 -12 -12 -12 -12 -13 -13 -13 -13 -14 -14 -15 -15 -15 -16 -16 -16 -16 -16 -17 -17 -17 -18 -19 -19 -19 -20 -20 -20 -20 -21 -21 -21
-12 -12 -12 -13 -13 -12 -12 -12 -12 -12 -12 -13 -12 -13 -13 -13 -13 -13 -14 -14 -15 -15 -16 -16 -16 -16 -16 -17 -17 -17 -17 -17 -19 -19 -20 -20 -20 -21 -21 -21 -21 -21 -21
-13 -13 -13 -13 -13 -13 -13 -13 -13 -13 -13 -13 -13 -13 -13 -13 -14 -14 -15 -15 -15 -15 -16 -16 -16 -16 -16 -17 -17 -17 -17 -18 -19 -20 -20 -21 -21 -21 -22 -22 -22 -22 -22
-13 -13 -14 -14 -14 -14 -13 -13 -13 -13 -13 -13 -13 -13 -13 -13 -13 -14 -14 -14 -15 -16 -16 -16 -16 -16 -17 -17 -17 -17 -17 -19 -20 -21 -21 -21 -22 -22 -22 -22 -22 -23 -23
-14 -14 -14 -14 -14 -14 -14 -14 -13 -13 -13 -13 -13 -13 -13 -14 -14 -14 -14 -15 -15 -15 -16 -16 -16 -17 -17 -17 -17 -17 -20 -21 -21 -21 -21 -22 -22 -23 -23 -23 -23 -23 -23
-15 -15 -15 -14 -14 -14 -14 -14 -14 -14 -14 -14 -14 -14 -14 -14 -14 -15 -15 -15 -16 -16 -16 -16 -17 -17 -17 -17 -17 -19 -20 -21 -22 -22 -22 -23 -23 -23 -23 -24 -24 -24 -26
-15 -15 -15 -15 -15 -15 -15 -14 -14 -14 -14 -14 -15 -15 -15 -15 -15 -16 -16 -16 -16 -17 -17 -17 -17 -17 -17 -18 -19 -20 -21 -22 -22 -23 -23 -23 -23 -24 -24 -24 -25 -26 -26
-16 -16 -16 -16 -16 -16 -16 -16 -16 -16 -15 -15 -15 -15 -15 -16 -16 -16 -17 -17 -17 -17 -17 -17 -18 -18 -19 -20 -21 -21 -21 -22 -23 -23 -23 -24 -24 -24 -25 -26 -26 -26 -26
-17 -17 -16 -16 -16 -16 -16 -16 -17 -17 -17 -16 -16 -16 -16 -17 -17 -17 -18 -18 -18 -18 -18 -18 -18 -20 -20 -20 -21 -21 -22 -23 -23 -24 -24 -24 -25 -26 -26 -27 -27 -27 -28
-16 -16 -17 -17 -17 -17 -17 -17 -17 -17 -17 -17 -17 -17 -17 -18 -18 -18 -18 -18 -18 -19 -18 -19 -20 -21 -21 -22 -22 -22 -22 -23 -24 -24 -25 -26 -26 -26 -27 -28 -28 -29 -29
-17 -17 -17 -17 -17 -17 -17 -17 -17 -17 -17 -18 -18 -18 -18 -18 -18 -19 -18 -19 -19 -18 -19 -20 -21 -21 -22 -22 -22 -23 -23 -24 -24 -25 -25 -25 -26 -27 -28 -28 -28 -29 -30
-19 -18 -18 -18 -17 -17 -17 -17 -17 -18 -18 -18 -18 -18 -19 -18 -19 -19 -19 -19 -19 -19 -20 -21 -22 -22 -23 -23 -24 -24 -24 -25 -25 -25 -26 -27 -28 -28 -28 -28 -29 -30 -30
-19 -19 -19 -19 -19 -18 -18 -18 -18 -19 -19 -19 -19 -19 -19 -19 -19 -19 -19 -19 -20 -21 -21 -22 -22 -23 -23 -24 -25 -25 -25 -26 -27 -27 -28 -28 -28 -29 -29 -29 -30 -31 -32
-20 -20 -20 -20 -19 -19 -19 -19 -19 -20 -20 -20 -20 -20 -20 -20 -20 -20 -20 -20 -21 -21 -22 -23 -24 -24 -24 -24 -26 -27 -27 -27 -27 -28 -28 -29 -29 -30 -30 -31 -31 -32 -33
-20 -20 -20 -20 -20 -20 -20 -19 -20 -20 -20 -20 -20 -21 -21 -21 -21 -21 -22 -22 -23 -23 -23 -23 -24 -24 -25 -25 -26 -27 -28 -29 -29 -30 -30 -30 -30 -31 -31 -32 -32 -33 -34
-21 -22 -22 -22 -21 -21 -21 -21 -21 -21 -21 -21 -21 -21 -22 -22 -22 -22 -22 -22 -23 -23 -24 -24 -24 -25 -26 -27 -28 -28 -29 -30 -30 -30 -30 -31 -31 -31 -32 -33 -34 -34 -35
-22 -22 -22 -22 -22 -22 -22 -22 -22 -22 -22 -22 -22 -22 -22 -23 -23 -23 -24 -24 -25 -25 -25 -26 -27 -27 -28 -28 -29 -30 -30 -30 -31 -31 -31 -31 -32 -32 -33 -34 -35 -35 -35
-24 -23 -23 -23 -23 -23 -23 -23 -23 -23 -23 -23 -24 -24 -25 -25 -25 -25 -26 -26 -27 -27 -28 -29 -29 -29 -30 -30 -31 -31 -31 -31 -31 -31 -32 -33 -33 -34 -34 -34 -35 -35 -36
-24 -24 -25 -24 -24 -24 -24 -24 -24 -25 -25 -26 -26 -26 -26 -26 -27 -27 -28 -28 -29 -29 -29 -30 -30 -31 -31 -31 -31 -31 -32 -32 -32 -33 -34 -34 -34 -34 -35 -35 -35 -36 -36
-25 -25 -25 -25 -25 -25 -26 -26 -26 -26 -26 -27 -27 -27 -27 -28 -29 -30 -30 -30 -31 -31 -31 -31 -31 -31 -32 -32 -32 -32 -33 -33 -34 -34 -34 -34 -35 -35 -36 -36 -36 -36 -37
-26 -26 -26 -26 -27 -27 -27 -27 -27 -27 -28 -28 -29 -29 -30 -30 -31 -31 -31 -31 -32 -32 -32 -32 -32 -32 -33 -33 -33 -34 -34 -34 -34 -34 -35 -35 -36 -36 -36 -36 -37 -37 -37
-27 -27 -27 -27 -27 -27 -28 -28 -29 -29 -30 -30 -31 -31 -31 -31 -32 -32 -32 -32 -32 -32 -33 -33 -33 -33 -33 -34 -34 -34 -35 -34 -35 -35 -36 -36 -36 -37 -37 -37 -37 -38 -38
-28 -28 -28 -28 -28 -29 -30 -31 -31 -31 -31 -31 -32 -32 -32 -32 -32 -32 -33 -33 -33 -33 -33 -33 -34 -34 -34 -34 -34 -34 -35 -35 -35 -36 -36 -37 -37 -37 -38 -38 -38 -39 -39
-29 -29 -30 -30 -31 -31 -32 -32 -32 -32 -32 -33 -33 -33 -33 -33 -33 -33 -33 -33 -34 -34 -34 -34 -34 -34 -34 -34 -35 -35 -36 -36 -36 -37 -37 -37 -38 -38 -38 -39 -39 -40 -40
-31 -31 -31 -32 -32 -32 -33 -33 -33 -33 -33 -33 -33 -33 -33 -33 -33 -34 -34 -34 -34 -34 -34 -34 -34 -34 -35 -35 -36 -36 -37 -37 -38 -38 -38 -38 -39 -39 -39 -40 -40 -40 -41

GFSGL_500_temp_072.txt.gz
Temp
-11 -11 -12 -12 -12 -12 -12 -13 -13 -14 -13 -13 -13 -13 -13 -13 -13 -12 -13 -13 -13 -13 -14 -14 -14 -14 -15 -15 -15 -16 -16 -16 -16 -17 -17 -17 -17 -17 -18 -19 -20 -20 -20
-12 -11 -12 -12 -12 -13 -13 -13 -13 -13 -14 -14 -13 -13 -13 -13 -13 -13 -13 -13 -13 -14 -14 -14 -15 -15 -15 -16 -16 -16 -16 -16 -16 -17 -17 -17 -17 -18 -19 -20 -20 -21 -21
-12 -12 -12 -12 -13 -14 -14 -14 -14 -14 -13 -14 -13 -13 -13 -14 -14 -14 -14 -14 -14 -14 -15 -15 -15 -16 -16 -16 -16 -16 -16 -16 -16 -17 -17 -17 -17 -19 -20 -20 -21 -21 -22
-12 -13 -14 -14 -14 -14 -14 -14 -14 -14 -14 -13 -14 -14 -14 -14 -14 -14 -14 -14 -14 -15 -15 -15 -15 -16 -16 -16 -16 -16 -16 -16 -17 -17 -17 -17 -19 -19 -20 -21 -22 -22 -22
-14 -14 -14 -14 -14 -14 -14 -14 -14 -14 -14 -14 -14 -15 -15 -14 -15 -15 -15 -15 -15 -15 -15 -15 -15 -15 -16 -16 -17 -17 -17 -17 -17 -17 -18 -19 -20 -20 -20 -21 -22 -23 -23
-14 -15 -15 -15 -15 -14 -14 -14 -14 -14 -14 -14 -14 -15 -15 -15 -15 -15 -15 -15 -16 -16 -16 -16 -16 -16 -16 -17 -17 -17 -17 -17 -17 -18 -19 -20 -21 -21 -21 -22 -23 -23 -23
-15 -15 -15 -15 -15 -15 -15 -15 -15 -15 -15 -15 -15 -15 -15 -15 -16 -16 -16 -16 -16 -16 -16 -17 -17 -17 -17 -17 -17 -17 -17 -18 -18 -20 -20 -20 -21 -21 -22 -22 -23 -24 -24
-16 -15 -15 -15 -16 -16 -16 -16 -16 -16 -16 -16 -16 -16 -16 -16 -16 -17 -17 -17 -17 -17 -17 -17 -17 -17 -17 -17 -17 -18 -18 -19 -19 -21 -21 -21 -22 -22 -23 -23 -24 -24 -24
-16 -16 -16 -16 -16 -16 -16 -17 -17 -17 -16 -16 -16 -16 -16 -17 -17 -17 -17 -17 -17 -17 -17 -17 -18 -18 -18 -18 -18 -18 -20 -20 -20 -21 -21 -22 -23 -23 -24 -24 -24 -24 -25
-17 -16 -16 -16 -16 -17 -17 -17 -17 -17 -17 -17 -17 -17 -17 -17 -17 -17 -17 -18 -18 -18 -18 -18 -18 -18 -18 -18 -18 -19 -20 -21 -21 -21 -22 -23 -23 -24 -24 -24 -25 -25 -26
-17 -17 -17 -17 -17 -17 -17 -17 -17 -18 -18 -17 -17 -17 -17 -17 -18 -18 -18 -18 -18 -18 -18 -19 -19 -19 -19 -19 -19 -20 -21 -21 -22 -22 -23 -23 -24 -24 -25 -25 -26 -27 -28
-19 -18 -18 -18 -18 -19 -19 -18 -18 -18 -18 -18 -18 -18 -17 -18 -18 -19 -19 -19 -19 -19 -19 -19 -19 -19 -19 -19 -21 -21 -22 -22 -22 -23 -24 -24 -25 -25 -26 -27 -28 -28 -29
-20 -20 -19 -19 -19 -19 -19 -19 -19 -19 -19 -19 -19 -19 -19 -19 -18 -19 -20 -19 -19 -19 -20 -20 -19 -20 -20 -21 -21 -22 -22 -23 -24 -24 -24 -25 -25 -26 -27 -28 -28 -29 -29
-20 -20 -20 -20 -20 -20 -20 -20 -20 -20 -20 -20 -19 -19 -19 -19 -19 -19 -19 -19 -20 -20 -20 -20 -20 -21 -21 -22 -23 -24 -24 -24 -25 -25 -25 -26 -27 -28 -28 -28 -29 -29 -30
-21 -21 -21 -21 -21 -21 -21 -20 -20 -20 -20 -20 -20 -20 -20 -20 -20 -20 -21 -21 -20 -20 -20 -21 -21 -22 -22 -23 -24 -25 -25 -25 -26 -27 -28 -28 -28 -28 -29 -29 -30 -30 -31
-22 -23 -23 -22 -22 -21 -21 -21 -21 -21 -21 -21 -21 -21 -21 -21 -21 -21 -21 -21 -21 -21 -21 -22 -23 -23 -24 -24 -25 -25 -27 -28 -29 -29 -29 -29 -29 -29 -30 -30 -31 -31 -31
-23 -23 -23 -23 -23 -23 -22 -22 -22 -22 -22 -22 -22 -22 -22 -22 -22 -23 -23 -22 -22 -23 -23 -23 -24 -24 -25 -26 -27 -28 -28 -29 -29 -29 -30 -30 -31 -31 -31 -31 -31 -32 -32
-23 -24 -23 -24 -24 -24 -23 -23 -22 -23 -23 -23 -23 -24 -24 -23 -23 -23 -24 -23 -23 -23 -24 -25 -26 -26 -27 -28 -28 -29 -29 -30 -30 -30 -31 -31 -31 -31 -31 -32 -32 -33 -34
-25 -24 -25 -25 -25 -25 -24 -24 -24 -25 -25 -25 -25 -25 -25 -25 -24 -24 -25 -25 -26 -26 -26 -27 -27 -28 -28 -28 -29 -30 -30 -31 -31 -32 -32 -32 -32 -32 -32 -33 -33 -34 -34
-25 -25 -26 -25 -25 -25 -25 -25 -25 -25 -25 -25 -26 -26 -26 -26 -26 -27 -27 -27 -27 -27 -28 -28 -29 -30 -30 -31 -31 -32 -32 -32 -32 -32 -32 -32 -32 -33 -33 -34 -34 -35 -35
-27 -26 -27 -27 -27 -27 -26 -26 -26 -26 -26 -27 -27 -27 -27 -27 -27 -27 -28 -28 -29 -30 -30 -30 -31 -32 -32 -32 -32 -32 -32 -32 -33 -33 -33 -33 -34 -34 -34 -34 -35 -35 -36
-28 -28 -27 -27 -27 -27 -27 -27 -27 -28 -28 -28 -28 -28 -28 -28 -29 -29 -30 -30 -31 -31 -32 -32 -32 -32 -32 -32 -32 -33 -33 -33 -33 -33 -34 -34 -34 -34 -35 -35 -36 -36 -37
-28 -28 -28 -28 -28 -28 -28 -28 -28 -28 -28 -28 -29 -29 -30 -30 -31 -31 -32 -32 -32 -32 -32 -33 -33 -33 -33 -33 -33 -34 -34 -34 -34 -34 -34 -34 -35 -35 -36 -36 -37 -37 -38
-29 -29 -29 -29 -29 -29 -29 -29 -29 -29 -30 -31 -31 -31 -31 -32 -32 -32 -32 -33 -33 -33 -33 -33 -33 -33 -34 -34 -34 -34 -34 -34 -34 -34 -34 -35 -36 -36 -36 -37 -38 -38 -38
-30 -30 -30 -30 -30 -30 -30 -30 -31 -31 -32 -32 -32 -33 -33 -33 -33 -33 -33 -33 -33 -33 -33 -33 -34 -34 -34 -34 -34 -34 -34 -34 -34 -35 -36 -36 -37 -38 -38 -39 -39 -39 -40
-31 -31 -31 -31 -31 -32 -32 -32 -32 -32 -33 -33 -33 -33 -33 -33 -33 -33 -34 -33 -34 -34 -34 -34 -34 -34 -34 -34 -34 -35 -35 -36 -36 -36 -37 -37 -38 -39 -39 -40 -40 -40 -41

GFSGL_500_temp_075.txt.gz
Temp
-12 -12 -12 -12 -12 -12 -12 -12 -12 -13 -14 -14 -14 -14 -14 -14 -14 -14 -14 -14 -14 -13 -14 -14 -14 -14 -15 -15 -15 -15 -15 -15 -15 -15 -16 -16 -17 -17 -17 -17 -17 -17 -19
-12 -12 -12 -12 -13 -13 -13 -14 -14 -14 -14 -14 -14 -14 -14 -14 -14 -14 -14 -14 -14 -14 -14 -14 -14 -14 -15 -15 -15 -16 -16 -15 -16 -16 -16 -16 -17 -17 -17 -17 -17 -18 -19
-13 -13 -13 -13 -13 -13 -13 -14 -15 -15 -15 -15 -14 -14 -15 -15 -14 -14 -14 -14 -15 -15 -15 -15 -15 -15 -15 -15 -16 -16 -16 -16 -16 -16 -16 -17 -17 -17 -17 -17 -18 -19 -20
-14 -14 -14 -14 -15 -14 -14 -14 -14 -15 -15 -15 -15 -14 -15 -15 -15 -15 -15 -15 -15 -15 -15 -15 -15 -15 -16 -16 -16 -16 -16 -16 -16 -17 -17 -17 -17 -17 -18 -18 -19 -20 -21
-16 -15 -15 -15 -15 -14 -14 -14 -14 -15 -15 -15 -15 -15 -15 -15 -15 -15 -15 -15 -15 -15 -16 -16 -16 -16 -16 -16 -16 -16 -16 -16 -17 -17 -17 -17 -17 -18 -18 -19 -19 -20 -21
-16 -16 -16 -16 -15 -15 -15 -15 -15 -15 -16 -16 -16 -15 -15 -16 -16 -16 -16 -16 -16 -16 -17 -17 -17 -17 -17 -17 -17 -16 -17 -17 -17 -17 -17 -17 -18 -18 -19 -20 -20 -21 -22
-16 -16 -16 -16 -16 -16 -16 -16 -16 -16 -16 -16 -16 -16 -16 -16 -16 -16 -17 -17 -17 -17 -17 -17 -17 -17 -17 -17 -17 -17 -17 -18 -18 -18 -18 -19 -19 -20 -20 -20 -21 -22 -22
-17 -17 -17 -17 -17 -17 -16 -16 -16 -16 -16 -16 -17 -17 -17 -17 -17 -16 -17 -17 -17 -17 -17 -17 -17 -17 -18 -18 -18 -18 -18 -18 -18 -18 -19 -20 -19 -20 -21 -21 -22 -22 -23
-17 -17 -18 -18 -18 -18 -17 -17 -17 -17 -17 -17 -17 -17 -17 -17 -17 -17 -17 -17 -17 -17 -17 -18 -18 -18 -18 -18 -18 -18 -18 -18 -19 -19 -19 -19 -20 -21 -22 -22 -23 -23 -24
-19 -19 -18 -18 -18 -18 -18 -18 -18 -18 -18 -18 -18 -18 -18 -18 -18 -18 -18 -17 -18 -18 -18 -18 -18 -19 -19 -19 -19 -19 -19 -19 -19 -19 -19 -20 -21 -22 -22 -23 -24 -24 -25
-20 -20 -20 -19 -18 -19 -19 -19 -19 -19 -19 -19 -18 -18 -19 -19 -19 -19 -19 -19 -19 -19 -19 -19 -19 -19 -19 -20 -20 -19 -19 -20 -19 -19 -20 -22 -22 -23 -24 -24 -25 -25 -26
-20 -20 -21 -21 -20 -20 -20 -20 -20 -20 -20 -20 -19 -19 -20 -20 -19 -20 -20 -19 -19 -19 -19 -19 -19 -19 -20 -20 -20 -20 -20 -20 -20 -21 -22 -23 -23 -25 -25 -26 -26 -26 -27
-20 -20 -21 -21 -21 -21 -21 -21 -20 -21 -20 -20 -20 -20 -20 -20 -20 -20 -20 -20 -19 -20 -20 -20 -20 -21 -20 -21 -21 -21 -21 -21 -22 -23 -23 -24 -25 -26 -26 -27 -27 -28 -28
-21 -21 -21 -21 -22 -21 -22 -21 -22 -21 -21 -20 -20 -20 -20 -21 -21 -20 -20 -20 -20 -20 -20 -21 -21 -21 -21 -21 -21 -21 -22 -23 -24 -24 -25 -25 -26 -27 -27 -27 -28 -29 -30
-22 -23 -23 -23 -23 -22 -22 -22 -22 -23 -23 -23 -22 -22 -22 -21 -21 -21 -21 -21 -21 -21 -21 -22 -22 -22 -22 -22 -22 -23 -24 -25 -25 -26 -26 -26 -27 -27 -28 -29 -29 -30 -30
-24 -24 -24 -24 -23 -23 -23 -23 -24 -24 -24 -24 -23 -23 -23 -22 -22 -22 -22 -22 -22 -22 -22 -22 -23 -23 -23 -23 -24 -25 -25 -26 -26 -27 -27 -27 -28 -28 -29 -30 -30 -31 -31
-24 -24 -24 -24 -23 -23 -23 -24 -24 -24 -24 -24 -23 -23 -23 -23 -23 -23 -23 -23 -23 -23 -24 -24 -25 -25 -25 -26 -26 -26 -26 -26 -27 -28 -29 -29 -30 -31 -31 -31 -31 -31 -32
-25 -24 -25 -25 -24 -24 -24 -24 -25 -25 -25 -25 -25 -25 -25 -24 -24 -24 -24 -24 -25 -25 -25 -25 -25 -26 -26 -26 -26 -27 -27 -28 -29 -30 -31 -31 -32 -32 -32 -32 -32 -32 -32
-27 -26 -26 -26 -25 -25 -25 -25 -26 -26 -25 -26 -26 -26 -25 -25 -26 -26 -25 -26 -26 -26 -26 -26 -27 -27 -27 -28 -28 -29 -30 -30 -31 -31 -32 -32 -32 -32 -32 -33 -33 -33 -33
-28 -28 -27 -27 -27 -27 -27 -27 -28 -27 -27 -27 -27 -27 -26 -26 -26 -26 -26 -27 -27 -28 -28 -28 -28 -28 -28 -29 -30 -30 -31 -31 -32 -32 -32 -32 -33 -33 -33 -33 -33 -34 -34
-29 -28 -28 -28 -28 -28 -28 -28 -28 -28 -27 -27 -27 -27 -28 -28 -28 -28 -28 -28 -29 -29 -29 -29 -29 -30 -31 -31 -32 -32 -32 -33 -33 -33 -33 -33 -33 -33 -34 -34 -34 -34 -34
-29 -29 -29 -29 -29 -28 -29 -29 -28 -28 -28 -29 -29 -29 -29 -29 -29 -29 -29 -29 -29 -30 -30 -31 -31 -32 -32 -32 -32 -33 -33 -33 -33 -33 -33 -34 -34 -34 -34 -34 -34 -34 -35
-31 -30 -30 -30 -30 -30 -30 -30 -30 -30 -30 -30 -30 -30 -30 -30 -30 -30 -31 -32 -32 -32 -32 -32 -32 -33 -33 -33 -33 -33 -33 -33 -34 -34 -34 -34 -34 -34 -34 -34 -35 -35 -36
-31 -31 -31 -30 -30 -31 -31 -30 -30 -30 -30 -30 -31 -31 -31 -32 -32 -32 -33 -33 -33 -33 -33 -33 -33 -33 -33 -33 -33 -34 -34 -34 -34 -34 -34 -34 -34 -34 -35 -36 -36 -37 -37
-32 -31 -31 -31 -31 -31 -31 -31 -31 -31 -31 -32 -32 -32 -32 -33 -33 -33 -33 -33 -33 -33 -33 -33 -33 -33 -33 -34 -34 -34 -34 -34 -34 -34 -34 -34 -35 -36 -37 -37 -38 -38 -38
-32 -32 -32 -32 -32 -32 -32 -32 -32 -32 -32 -33 -33 -33 -33 -33 -33 -33 -33 -33 -33 -34 -34 -34 -34 -34 -34 -34 -34 -34 -34 -34 -34 -35 -36 -37 -37 -38 -39 -39 -39 -39 -39